User: anonymous   Login
Location: Altleiningen
(49.5078°N, 8.0741°E)
Time: 18:25:22
(UTC+00:00)
Language:

HJ-1C - Orbit

View from above orbital plane
View from above orbital plane
View from above satellite
View from above satellite

Ground track
Ground track

The orbit data is extracted from the following two-line orbital elements,

1 38997U 12064A   21135.94554284  .00003801  00000-0  84493-4 0  9996
2 38997  97.1201 165.5676 0007684 226.8543 179.2469 15.44251224477061
Epoch (UTC): 15 May 2021 22:41:34
Eccentricity: 0.0007684
inclination: 97.1201°
perigee height: 428 km
apogee height: 439 km
right ascension of ascending node: 165.5676°
argument of perigee: 226.8543°
revolutions per day: 15.44251224
mean anomaly at epoch: 179.2469°
orbit number at epoch: 47706

The dashed part of the orbit path shows where the satellite is in the earth's shadow,  

DLR